Weather History for North Myrtle Beach, SC

Change the Weather History Date:

Saturday, October 27, 2012

  Actual Average Record
Temperature  
Mean Temperature 67 °F 62 °F  
Max Temperature 69 °F 72 °F 82 °F (2010)
Min Temperature 64 °F 52 °F 39 °F (2001)
Degree Days  
Heating Degree Days 0 5  
Month to date heating degree days 52 65  
Since 1 July heating degree days 52 69  
Cooling Degree Days 2 2  
Month to date cooling degree days 94 92  
Year to date cooling degree days 2095 1876  
Growing Degree Days 16 (Base 50)    
Moisture  
Dew Point 62 °F    
Average Humidity 83    
Maximum Humidity 93    
Minimum Humidity 73    
Precipitation  
Precipitation 0.64 in 0.08 in 2.05 in (2006)
Month to date precipitation 1.89 3.46  
Year to date precipitation 33.23 45.09  
Sea Level Pressure  
Sea Level Pressure 29.61 in    
Wind  
Wind Speed 16 mph (NNE)    
Max Wind Speed 26 mph    
Max Gust Speed 38 mph    
Visibility 8 miles    
Events Rain    
T = Trace of Precipitation, MM = Missing Value Source: NWS Daily Summary

Daily Weather History Graph

Daily Weather History Graph

Search for Another Location

Airport:

Trip Planner

Search our weather history database for the weather conditions in past years. The results will help you decide how hot, cold, wet, or windy it might be!

Date:

Astronomy

Oct. 27, 2012 Rise Set
Actual Time 7:30 AM EDT 6:26 PM EDT
Civil Twilight 7:04 AM EDT 6:52 PM EDT
Nautical Twilight 6:35 AM EDT 7:21 PM EDT
Astronomical Twilight 6:06 AM EDT 7:50 PM EDT
Moon 5:08 PM EDT (10/27) 5:27 AM EDT (10/27)
Length of Visible Light 11h 47m
Length of Day
10h 56m
Waxing Gibbous, 96% of the Moon is Illuminated
Oct 27
Waxing Gibbous
Oct 29
Full
Nov 6
Last Quarter
Nov 13
New
Nov 20
First Quarter

Hourly Weather History & Observations

Time (EDT) Temp. Dew Point Humidity Pressure Visibility Wind Dir Wind Speed Gust Speed Precip Events Conditions
12:08 AM 68.0 °F 64.4 °F 88% 29.79 in 10.0 mi NNE 11.5 mph - N/A   Mostly Cloudy
12:15 AM 68.0 °F 64.4 °F 88% 29.79 in 10.0 mi NNE 11.5 mph 19.6 mph N/A   Overcast
12:53 AM 68.0 °F 64.0 °F 87% 29.78 in 10.0 mi NNE 15.0 mph 21.9 mph 0.00 in Rain Light Rain
1:53 AM 66.9 °F 64.0 °F 90% 29.74 in 10.0 mi NNE 9.2 mph - 0.01 in Rain Light Rain
2:53 AM 66.9 °F 64.0 °F 90% 29.70 in 10.0 mi NNE 11.5 mph 19.6 mph 0.00 in   Mostly Cloudy
3:10 AM 66.2 °F 64.4 °F 94% 29.69 in 10.0 mi North 11.5 mph 20.7 mph N/A   Scattered Clouds
3:53 AM 68.0 °F 63.0 °F 84% 29.68 in 10.0 mi NNE 15.0 mph 25.3 mph N/A   Overcast
4:41 AM 69.8 °F 62.6 °F 78% 29.65 in 10.0 mi NNE 17.3 mph 28.8 mph N/A   Scattered Clouds
4:51 AM 68.0 °F 62.6 °F 83% 29.66 in 10.0 mi NNE 19.6 mph 26.5 mph N/A   Mostly Cloudy
4:53 AM 68.0 °F 63.0 °F 84% 29.66 in 10.0 mi NNE 16.1 mph 26.5 mph N/A   Mostly Cloudy
5:39 AM 68.0 °F 62.6 °F 83% 29.65 in 10.0 mi NNE 17.3 mph 26.5 mph 0.00 in Rain Light Rain
5:53 AM 68.0 °F 63.0 °F 84% 29.65 in 8.0 mi NNE 16.1 mph 28.8 mph 0.02 in Rain Light Rain
6:53 AM 66.0 °F 63.0 °F 90% 29.65 in 7.0 mi NNE 12.7 mph 24.2 mph 0.06 in Rain Light Rain
7:24 AM 66.2 °F 62.6 °F 88% 29.64 in 7.0 mi NNE 17.3 mph 24.2 mph 0.05 in Rain Light Rain
7:53 AM 64.9 °F 63.0 °F 93% 29.65 in 7.0 mi NNE 13.8 mph 20.7 mph 0.10 in Rain Light Rain
8:53 AM 64.9 °F 63.0 °F 93% 29.66 in 5.0 mi NNE 15.0 mph 21.9 mph 0.03 in Rain Light Rain
9:53 AM 66.0 °F 63.0 °F 90% 29.65 in 5.0 mi North 16.1 mph 26.5 mph 0.02 in Rain Light Rain
10:53 AM 66.0 °F 63.0 °F 90% 29.63 in 10.0 mi NNE 17.3 mph 29.9 mph 0.00 in Rain Light Rain
11:53 AM 66.0 °F 63.0 °F 90% 29.62 in 7.0 mi North 13.8 mph 27.6 mph 0.09 in Rain Light Rain
12:00 PM 66.2 °F 62.6 °F 88% 29.61 in 5.0 mi NNE 16.1 mph 28.8 mph 0.01 in Rain Light Rain
12:25 PM 64.4 °F 62.6 °F 94% 29.60 in 5.0 mi NNE 16.1 mph 28.8 mph 0.06 in Rain Rain
12:32 PM 66.2 °F 62.6 °F 88% 29.59 in 5.0 mi NNE 15.0 mph 28.8 mph 0.08 in Rain Rain
12:53 PM 66.0 °F 63.0 °F 90% 29.59 in 5.0 mi NNE 19.6 mph 29.9 mph 0.10 in Rain Light Rain
1:18 PM 66.2 °F 62.6 °F 88% 29.58 in 5.0 mi NNE 18.4 mph 31.1 mph 0.02 in Rain Light Rain
1:53 PM 64.9 °F 63.0 °F 93% 29.57 in 5.0 mi NNE 12.7 mph 24.2 mph 0.05 in Rain Light Rain
2:44 PM 64.4 °F 62.6 °F 94% 29.55 in 7.0 mi NNE 17.3 mph 26.5 mph 0.06 in Rain Light Rain
2:53 PM 64.9 °F 62.1 °F 90% 29.55 in 8.0 mi NNE 20.7 mph 33.4 mph 0.07 in Rain Light Rain
3:12 PM 64.4 °F 62.6 °F 94% 29.54 in 10.0 mi NNE 15.0 mph 25.3 mph 0.01 in Rain Light Rain
3:20 PM 64.4 °F 62.6 °F 94% 29.53 in 10.0 mi NNE 18.4 mph 29.9 mph 0.01 in Rain Light Rain
3:30 PM 64.4 °F 62.6 °F 94% 29.53 in 9.0 mi NNE 15.0 mph 23.0 mph 0.02 in Rain Light Rain
3:53 PM 64.9 °F 62.1 °F 90% 29.53 in 9.0 mi North 21.9 mph 29.9 mph 0.04 in Rain Light Rain
4:42 PM 64.4 °F 62.6 °F 94% 29.52 in 8.0 mi NNE 17.3 mph 28.8 mph 0.03 in Rain Light Rain
4:53 PM 64.9 °F 62.1 °F 90% 29.52 in 8.0 mi North 12.7 mph 28.8 mph 0.04 in Rain Light Rain
5:25 PM 64.4 °F 60.8 °F 88% 29.51 in 10.0 mi North 12.7 mph 21.9 mph 0.01 in Rain Light Rain
5:37 PM 64.4 °F 60.8 °F 88% 29.51 in 10.0 mi North 15.0 mph 24.2 mph 0.01 in Rain Light Rain
5:53 PM 64.9 °F 61.0 °F 87% 29.52 in 10.0 mi NNE 18.4 mph 29.9 mph 0.01 in Rain Light Rain
6:53 PM 64.9 °F 60.1 °F 84% 29.53 in 10.0 mi NNE 15.0 mph 27.6 mph 0.00 in   Overcast
7:53 PM 66.0 °F 60.1 °F 81% 29.54 in 10.0 mi North 16.1 mph 27.6 mph N/A   Overcast
8:53 PM 66.9 °F 57.9 °F 73% 29.53 in 10.0 mi NNE 20.7 mph 33.4 mph N/A   Overcast
9:53 PM 66.9 °F 57.9 °F 73% 29.53 in 10.0 mi NNE 20.7 mph 28.8 mph N/A   Overcast
10:04 PM 66.2 °F 57.2 °F 73% 29.53 in 10.0 mi North 15.0 mph 28.8 mph N/A   Overcast
10:53 PM 66.9 °F 57.9 °F 73% 29.53 in 10.0 mi NNE 18.4 mph 27.6 mph N/A   Overcast
11:36 PM 66.2 °F 57.2 °F 73% 29.54 in 10.0 mi NNE 16.1 mph 32.2 mph N/A   Overcast